GFSFLT1_2pvu_pres_105.txt.gz
Presure
251 221 195 203 193 209 199 188 204 215 220 219 269 208 193 208 192 187 177 190 191 183 178 179 180 152 172 164 183 163 184 175
241 224 225 150 203 193 190 205 204 213 218 220 286 205 207 194 183 185 184 177 176 174 177 183 156 182 170 176 183 180 174 152
236 228 244 209 199 196 190 206 198 212 217 207 199 246 202 196 192 194 182 179 174 174 173 199 177 174 181 179 167 165 163 162
247 234 239 211 201 195 192 200 198 205 211 222 212 237 202 197 189 191 183 187 181 172 173 185 178 178 171 167 168 153 158 179
228 232 208 212 201 205 195 208 207 197 201 217 284 244 223 198 185 183 186 179 185 185 190 169 199 175 173 165 173 176 167 176
220 233 240 213 204 194 203 199 200 200 195 215 272 255 228 213 187 185 191 183 182 176 184 186 186 163 166 172 163 183 169 163
197 227 216 224 205 196 193 190 200 197 182 225 227 303 211 219 213 186 171 182 178 171 178 186 188 186 180 170 164 175 173 173
205 227 222 220 208 206 198 193 203 194 212 217 221 285 234 210 211 203 192 178 186 185 184 170 181 189 176 176 179 185 173 169
227 221 217 215 206 204 204 193 205 202 199 217 205 230 300 219 203 205 203 195 176 173 198 179 174 172 173 188 179 183 170 181
238 236 213 212 206 207 193 201 189 200 195 213 206 215 272 231 214 199 188 194 192 181 179 181 165 170 162 168 183 181 178 170
238 226 225 231 209 206 197 193 185 192 202 207 210 189 212 261 221 207 199 193 195 197 188 183 181 181 182 172 163 167 172 171
222 242 228 208 219 211 202 197 187 184 202 190 205 202 194 205 252 216 207 198 194 195 193 182 179 178 183 182 184 181 189 177
228 218 224 207 217 220 209 207 186 194 173 203 198 207 196 198 203 238 239 208 197 204 191 179 185 198 189 168 170 170 173 182
225 216 208 223 202 204 212 201 176 196 215 194 192 196 202 193 183 194 203 209 231 200 195 196 193 189 187 184 185 194 198 197
217 213 205 210 202 192 208 200 191 191 194 171 197 196 198 192 190 197 187 193 202 217 212 219 205 201 191 191 193 197 195 191
211 209 205 203 211 194 208 187 191 196 199 200 170 193 190 176 194 195 195 200 196 192 204 209 193 196 215 269 251 249 198 193
213 217 209 210 203 198 181 182 190 191 183 194 198 169 191 194 184 178 193 192 200 189 188 195 207 203 203 199 199 198 219 222
218 213 206 212 199 195 184 186 190 185 198 215 204 197 196 176 188 191 186 183 199 189 197 188 194 181 185 192 197 199 198 194
220 208 205 210 206 194 201 206 202 207 209 183 191 181 191 189 203 195 196 191 208 181 200 204 187 199 200 201 182 178 187 188

GFSFLT1_2pvu_pres_111.txt.gz
Presure
190 197 202 207 198 175 218 223 251 220 228 214 200 191 202 213 217 224 224 223 232 239 212 215 211 219 174 183 169 180 167 169
188 187 201 205 182 182 191 218 248 239 232 222 205 190 201 212 216 225 223 222 231 251 233 230 173 184 210 170 174 175 161 183
193 192 202 195 204 206 185 178 245 237 216 212 199 191 203 212 211 217 221 214 254 228 220 208 179 195 181 196 189 171 170 158
195 196 205 212 197 209 198 217 245 236 216 207 198 197 210 200 215 208 222 210 237 242 212 194 198 187 174 175 172 181 165 173
195 202 212 212 213 225 216 225 252 240 212 200 207 202 209 196 219 209 222 203 222 214 217 197 194 184 170 177 171 169 167 165
205 214 207 205 228 221 244 215 256 237 215 208 208 208 204 200 211 246 223 210 216 183 203 200 174 184 181 183 171 185 170 152
219 176 221 233 232 241 235 217 272 233 216 212 207 206 208 202 214 336 225 211 204 202 201 186 193 188 173 181 178 173 175 160
230 226 213 226 234 237 228 257 265 222 222 210 202 202 204 218 217 330 208 214 200 200 189 192 176 177 178 172 175 174 169 182
225 215 214 238 240 235 223 251 246 224 205 206 197 193 207 214 215 285 208 222 204 191 184 183 193 174 188 172 181 173 182 179
214 232 248 234 242 229 249 248 234 216 215 209 193 198 212 194 217 250 211 214 212 194 187 184 181 190 177 182 187 171 172 178
226 223 225 225 236 256 256 254 233 214 216 200 195 198 199 201 206 313 222 197 205 211 199 190 184 181 184 180 181 180 178 178
229 235 221 245 249 254 244 241 216 213 208 201 199 192 197 198 212 204 225 195 193 201 208 206 191 188 186 183 186 181 179 183
223 240 241 256 251 263 226 231 216 208 218 210 200 195 191 183 201 201 276 199 196 185 190 205 207 199 194 192 191 195 191 187
235 245 244 246 248 248 225 224 208 206 204 204 200 195 198 199 185 200 211 238 189 199 180 190 189 186 196 198 199 196 194 186
241 248 222 239 247 260 239 222 219 203 202 196 199 197 195 186 187 181 203 219 207 190 182 183 187 176 170 185 178 182 185 186
245 234 234 237 270 212 219 218 219 207 204 200 201 188 194 200 194 200 186 200 212 207 187 186 181 179 189 188 189 189 181 182
223 242 234 273 244 228 227 221 229 205 216 222 194 197 193 193 191 199 205 196 188 202 213 190 191 186 178 178 179 179 180 181
239 233 241 270 233 227 230 222 234 222 211 209 215 209 190 190 181 190 183 198 198 196 188 198 207 204 198 185 180 182 182 192
237 238 254 258 234 227 226 220 214 199 215 203 209 209 202 201 198 194 185 187 192 195 199 193 188 179 190 200 204 204 202 202

GFSFLT1_2pvu_pres_114.txt.gz
Presure
192 188 180 196 206 183 175 182 200 184 228 207 242 239 216 205 197 200 215 221 222 218 215 226 206 214 182 186 188 179 178 168
197 200 202 188 190 187 195 184 161 168 212 244 233 255 221 209 195 197 216 223 224 232 217 238 205 234 179 193 205 181 185 185
196 200 204 200 195 204 196 191 181 214 223 189 226 257 234 212 193 189 221 217 225 206 216 241 223 230 203 194 179 170 170 169
192 195 178 199 195 186 186 195 205 218 226 202 228 248 237 223 197 190 203 234 220 205 219 237 218 222 219 201 180 188 179 168
203 184 204 193 151 194 78 201 211 216 234 201 247 241 222 222 194 206 209 223 219 213 223 214 214 243 225 180 183 176 171 167
204 210 98 199 200 189 200 201 210 220 142 248 253 234 219 214 202 209 205 226 216 208 214 239 224 206 206 211 190 175 179 178
195 214 210 205 205 174 206 212 224 238 250 230 250 228 216 213 205 207 203 232 216 217 211 238 212 216 168 194 185 172 171 178
199 207 218 215 215 217 215 223 231 230 247 223 260 225 216 207 203 209 204 215 218 219 210 219 224 186 190 196 187 183 175 166
222 220 219 220 216 214 223 231 239 230 239 256 243 224 215 207 205 203 222 220 224 210 204 217 185 200 181 184 179 179 173 175
210 220 215 214 213 223 226 230 228 237 236 261 234 220 217 210 200 218 217 226 281 208 208 201 201 186 183 173 192 173 184 177
85 223 222 214 224 222 228 229 252 248 231 258 227 217 211 208 201 202 236 214 304 194 205 199 190 187 179 186 182 173 172 176
227 223 226 233 220 227 223 243 257 246 254 232 225 213 201 204 193 211 206 250 235 210 203 199 188 182 180 182 180 187 184 180
230 235 239 222 216 215 228 234 233 244 253 229 212 213 194 205 207 206 215 269 216 202 205 205 190 185 175 178 179 182 186 188
241 244 234 225 214 223 234 249 234 263 257 227 207 215 197 205 196 212 205 244 203 204 198 220 199 191 184 179 179 182 178 184
233 234 229 226 221 230 244 242 262 259 233 222 204 211 200 205 200 211 208 195 210 195 191 190 201 199 194 189 185 182 179 171
228 230 222 231 220 228 228 251 251 263 223 220 207 210 196 204 199 201 196 200 209 198 191 184 187 188 191 191 179 195 194 191
227 222 230 232 240 238 239 239 246 224 212 221 214 206 200 204 196 198 197 191 200 183 230 196 185 186 182 183 193 187 191 192
238 229 221 230 232 214 236 243 254 230 220 217 213 202 200 201 192 199 194 190 191 204 198 208 182 173 182 174 166 174 172 174
244 237 242 234 249 237 223 244 225 233 215 217 216 197 205 190 202 198 192 149 178 160 190 203 200 208 203 180 181 184 177 173

GFSFLT1_2pvu_pres_117.txt.gz
Presure
187 183 195 187 200 183 194 199 167 177 196 202 166 182 224 225 256 236 207 208 206 216 218 217 219 217 217 208 186 175 186 179
191 195 191 192 191 194 194 195 167 200 203 210 188 198 172 226 233 235 207 203 209 223 226 241 212 203 230 189 202 176 190 187
172 193 190 189 189 200 191 195 192 194 183 183 213 176 232 223 235 246 217 204 195 213 216 232 221 208 237 197 195 179 194 178
155 195 184 193 187 184 196 173 187 180 205 180 179 194 220 249 197 262 210 203 193 198 216 235 207 216 236 208 215 187 189 175
205 202 196 195 201 193 200 201 178 198 205 198 193 211 221 248 246 244 228 206 203 204 214 235 204 225 217 206 209 189 189 180
213 222 209 213 205 205 201 203 207 201 207 202 203 213 222 179 249 236 213 204 203 208 214 236 207 220 229 242 231 196 186 183
213 213 213 203 212 208 213 217 202 212 209 212 212 224 223 252 221 234 212 203 203 207 212 227 212 224 234 220 222 210 194 167
208 201 210 212 217 214 132 209 203 212 210 208 219 228 235 250 155 235 213 201 204 211 209 229 215 216 209 219 176 204 198 180
217 212 209 213 219 207 214 205 199 211 216 217 226 222 237 242 250 233 222 208 204 214 207 235 216 208 222 218 224 195 190 181
217 214 216 220 215 211 223 193 211 214 217 219 217 237 238 232 257 227 218 195 209 229 205 235 216 220 219 209 199 197 167 197
219 224 212 212 217 219 217 217 219 218 218 215 221 237 236 228 248 227 213 194 210 216 209 230 216 210 224 202 188 172 189 186
228 222 229 152 225 221 210 218 217 215 215 217 229 231 248 247 242 224 213 195 209 212 203 226 218 205 212 190 197 201 185 180
232 239 239 102 230 225 226 218 213 218 215 229 235 242 233 246 235 214 205 193 197 234 216 222 216 207 196 193 181 197 177 172
238 247 255 255 244 234 227 222 221 216 228 230 227 237 248 237 227 209 209 202 198 216 242 218 209 210 197 189 189 182 181 175
255 247 235 247 239 233 229 224 220 227 228 230 225 233 258 235 215 206 204 209 203 200 204 223 223 197 200 191 181 181 173 176
239 249 248 246 235 234 232 231 234 231 223 229 250 245 256 229 210 203 205 193 204 193 210 200 211 215 193 186 186 185 181 181
246 246 244 239 240 239 234 239 229 198 235 252 268 255 243 229 206 203 201 197 204 221 197 199 186 212 184 192 193 189 188 182
246 239 235 230 229 237 240 231 212 228 228 258 253 239 227 218 204 211 201 197 205 202 219 201 188 187 197 205 212 201 184 187
241 238 235 233 229 233 238 231 225 224 244 251 240 226 221 213 205 210 198 193 199 202 195 207 191 181 191 191 186 192 201 193